Hourly Data Report for October 30, 2014

All times are specified in Local Standard Time (LST). Add 1 hour to adjust for Daylight Saving Time where and when it is observed.

ARVIAT A
NUNAVUT

61°05'38.000" N
94°04'18.000" W
10.40 m
2300427
71174
YEK

Download Data

Hourly Data (October 2014)
Hourly Data Report for October 30, 2014
Temp Definition
°C
Dew Point Temp Definition
°C
Rel Hum Definition
%
Wind Dir Definition
10's deg

Wind Spd Definition
km/h
Visibility Definition
km
Stn Press Definition
kPa
Hmdx Definition


Wind Chill Definition


Weather Definition


TIME
00:00 Legend Double Dagger -6.9 -7.3 97 30 9 16.1 101.85   -11 LegendNANA
01:00 Legend Double Dagger -8.6 -9.1 96 33 15 16.1 101.90   -15 LegendNANA
02:00 Legend Double Dagger -10.0 -10.5 96 34 17 16.1 101.95   -17 LegendNANA
03:00 Legend Double Dagger -9.4 -9.8 97 33 24 16.1 102.04   -18 LegendNANA
04:00 Legend Double Dagger -9.0 -9.5 96 33 22 16.1 102.11   -17 Snow
05:00 Legend Double Dagger -8.6 -9.0 97 33 28 6.4 102.19   -17 Snow
06:00 Legend Double Dagger -8.5 -9.1 95 32 26 16.1 102.26   -17 Snow
07:00 Legend Double Dagger -7.1 -7.8 95 34 30 16.1 102.33   -16 Snow
08:00 Legend Double Dagger -8.3 -9.1 94 36 30 16.1 102.43   -17 Snow
09:00 Legend Double Dagger -9.2 -10.4 91 35 32 16.1 102.52   -19 Snow
10:00 Legend Double Dagger -10.5 -11.9 90 35 34 16.1 102.61   -21 LegendNANA
11:00 Legend Double Dagger -10.5 -12.5 85 35 30 16.1 102.68   -20 LegendNANA
12:00 Legend Double Dagger -10.3 -12.6 84 34 22 16.1 102.73   -19 LegendNANA
13:00 Legend Double Dagger -10.1 -12.7 82 33 26 16.1 102.76   -19 LegendNANA
14:00 Legend Double Dagger -10.3 -12.7 83 33 30 16.1 102.80   -20 LegendNANA
15:00 Legend Double Dagger -10.8 -13.0 84 31 22 16.1 102.86   -19 LegendNANA
16:00 Legend Double Dagger -11.6 -13.8 84 30 24 16.1 102.90   -21 LegendNANA
17:00 Legend Double Dagger -12.5 -14.3 86 29 17 16.1 102.89   -20 LegendNANA
18:00 Legend Double Dagger -13.4 -15.1 87 30 21 16.1 102.88   -22 LegendNANA
19:00 Legend Double Dagger -13.3 -14.8 89 28 13 16.1 102.87   -20 LegendNANA
20:00 Legend Double Dagger -12.9 -14.5 88 27 15 16.1 102.81   -20 LegendNANA
21:00 Legend Double Dagger -13.7 -15.0 90 23 8 16.1 102.73   -19 LegendNANA
22:00 Legend Double Dagger -13.3 -14.6 90 24 15 16.1 102.68   -21 LegendNANA
23:00 Legend Double Dagger -13.5 -14.9 89 25 17 16.1 102.61   -22 LegendNANA

Notes on Data Quality.

Legend

  • E = Estimated
  • M = Missing
  • NA = Not Available
  • ‡ = Partner data that is not subject to review by the National Climate Archives
Date modified: